Theta_e
302 302 302 302 302 302 301 302 303 302 303 304 305 305 306 306 308 309 314 314 315 313 314 318 318 319 320 317 321 318 321 322 321 320 318 317 320 323 324 323 323 323 322 323 322 328 332 323 326 331 323 323 323 322
302 301 301 302 302 301 302 301 302 303 304 305 305 305 305 305 307 308 310 313 314 313 313 318 319 320 318 318 314 314 321 322 320 325 323 320 324 319 320 323 319 321 320 324 325 326 321 319 321 320 319 320 321 320
301 301 301 301 301 302 301 302 304 304 304 305 305 305 304 305 306 307 309 312 313 312 314 315 318 319 318 318 318 318 319 319 321 317 318 315 319 314 319 320 322 318 317 323 322 323 321 319 318 318 318 318 318 318
300 301 301 301 301 301 302 302 302 303 304 305 305 304 305 306 308 308 309 312 313 312 317 318 320 318 318 319 320 319 318 315 312 312 314 315 318 314 317 317 317 317 319 320 321 322 320 319 318 318 319 319 319 319
301 301 301 302 302 301 302 302 303 304 306 306 306 306 306 307 309 310 314 311 311 314 316 316 317 320 320 318 318 318 317 315 315 317 315 316 313 316 313 313 319 316 317 320 322 318 318 318 318 318 317 317 317 317
301 301 301 301 301 302 302 303 303 305 307 307 307 308 308 309 310 313 313 314 313 311 313 318 316 316 317 318 318 317 315 313 313 314 316 314 313 314 315 317 317 317 315 315 318 316 315 316 316 317 317 317 317 316
301 301 301 301 301 302 302 303 303 307 309 309 309 310 310 309 309 309 314 313 313 312 314 317 316 315 317 318 315 315 315 313 313 313 315 314 314 312 313 317 319 317 318 317 316 315 318 317 316 316 316 316 316 315
300 301 301 301 302 302 302 303 306 309 309 311 314 313 310 310 311 316 317 315 313 314 312 316 318 315 317 316 317 312 316 314 314 313 313 314 313 312 316 313 316 317 317 318 316 315 314 314 313 315 316 314 313 312
301 301 301 301 302 302 302 305 308 308 310 313 315 315 313 314 315 317 316 315 314 314 315 315 319 320 313 314 314 315 312 318 313 317 315 316 315 318 316 317 319 318 316 316 315 316 315 316 317 316 315 313 312 311
301 301 301 301 302 302 302 306 308 309 311 313 315 315 313 315 314 315 316 312 311 311 309 314 312 319 313 313 317 317 314 317 319 317 315 318 318 314 313 319 319 316 313 314 315 315 315 317 316 315 314 311 311 311
301 301 301 302 302 302 303 306 307 309 310 310 307 309 312 312 315 314 319 316 315 316 312 312 313 318 314 318 321 317 319 317 319 316 317 318 318 316 317 315 313 312 313 313 312 313 314 314 314 313 312 313 313 314
301 301 301 301 301 302 304 306 306 307 307 308 307 308 310 311 313 318 317 317 316 318 315 315 316 316 319 315 318 319 319 317 321 316 318 318 314 314 314 314 313 312 313 314 315 315 315 315 315 314 313 313 315 315
301 300 301 301 301 303 305 305 305 306 308 309 310 312 314 312 311 319 319 318 319 318 318 318 320 322 321 317 317 318 320 320 316 318 320 321 318 317 315 315 316 315 314 314 315 316 316 316 316 316 315 316 315 315
300 301 301 301 303 306 306 306 305 306 308 311 316 311 314 316 315 317 317 319 318 322 321 319 321 319 317 319 318 321 318 318 321 320 320 319 317 315 315 318 320 319 315 314 316 316 316 316 315 315 315 315 315 315
300 301 301 306 307 306 306 305 306 307 308 312 313 313 315 313 314 317 317 318 319 319 320 320 319 318 318 319 318 319 322 322 319 318 316 315 313 313 313 313 313 315 314 313 315 315 315 315 314 313 315 316 315 314
300 301 306 307 307 306 305 305 307 309 310 312 312 314 313 315 317 316 318 319 319 318 317 317 318 319 320 318 321 322 322 320 318 317 314 311 311 311 311 311 312 315 314 314 315 315 315 314 314 314 316 316 314 313
301 301 306 306 305 304 306 306 309 312 312 314 314 311 312 315 317 316 314 319 317 320 321 320 322 320 315 319 321 318 319 318 314 313 311 310 310 311 311 311 314 316 316 315 315 315 314 315 315 314 314 316 315 312
301 304 305 303 303 306 306 308 309 312 316 313 313 311 310 311 312 312 313 316 318 320 320 322 320 319 319 319 317 314 314 312 312 311 311 310 311 312 313 311 315 316 316 316 316 315 314 313 312 313 315 316 315 315
301 301 302 304 305 304 305 310 310 312 311 310 309 309 309 310 309 310 312 315 314 315 315 315 319 317 317 314 316 315 314 313 314 313 312 314 315 315 315 316 316 316 316 314 313 313 312 312 313 313 316 316 314 315
301 304 306 306 306 305 309 307 311 311 312 312 309 310 310 311 310 313 314 314 313 315 316 317 316 314 313 313 314 315 313 312 311 313 313 312 315 316 315 314 314 315 314 313 313 315 314 312 312 313 314 316 315 315
305 308 307 307 306 305 304 306 307 307 309 311 310 311 312 311 313 315 315 312 314 314 316 314 313 312 313 315 315 314 312 312 309 310 311 310 312 312 314 314 313 313 312 313 311 311 312 311 313 313 312 315 316 315
306 307 307 308 308 308 308 307 306 306 307 309 310 310 312 314 314 315 312 314 314 313 312 312 312 312 313 312 313 315 314 315 314 312 311 312 311 309 310 313 313 311 311 311 312 311 312 313 313 313 312 312 314 316
304 306 306 307 308 306 306 308 310 311 315 314 316 319 318 318 316 314 316 315 314 312 310 311 313 314 313 315 316 315 315 315 311 311 312 313 313 313 313 314 314 313 312 313 313 312 312 313 313 313 311 311 310 315
305 306 307 310 310 309 308 312 314 317 318 318 318 322 321 319 317 317 319 317 315 310 309 310 313 312 311 312 311 312 315 315 312 310 311 311 308 310 313 313 313 314 314 314 314 313 313 314 313 313 312 308 310 311
306 306 305 305 309 313 314 317 318 317 320 319 320 322 321 321 323 321 322 317 314 312 311 311 312 312 310 309 310 313 315 315 311 306 311 310 311 311 312 312 313 314 314 312 311 311 312 312 313 313 312 309 309 311
308 308 306 310 311 313 317 320 320 320 318 320 320 319 318 320 322 322 317 316 314 314 313 313 313 312 311 311 310 310 314 315 315 310 314 313 313 311 310 309 309 312 311 310 310 309 309 310 311 311 309 309 308 309
308 309 306 305 309 314 317 316 317 319 321 322 320 323 322 323 321 318 316 313 314 316 318 317 316 313 312 313 315 316 316 314 314 315 315 315 315 315 315 312 309 312 310 310 309 309 309 309 310 309 309 309 309 310
307 307 310 309 312 313 316 316 316 317 318 318 320 322 324 325 321 317 316 319 319 320 319 318 318 316 315 315 315 316 315 314 315 315 315 315 315 315 314 312 308 309 309 309 309 310 309 309 310 310 310 309 309 310
307 307 309 311 311 312 314 315 315 313 313 315 318 321 323 319 317 318 320 320 318 319 317 315 317 316 315 314 314 315 314 314 313 312 313 311 311 315 311 309 310 311 310 310 311 311 310 310 309 309 309 309 310 312
307 306 309 312 314 315 313 312 313 312 313 314 314 316 317 317 321 321 321 321 320 315 315 315 314 312 313 312 312 313 314 314 314 313 313 313 313 315 315 312 311 311 311 311 311 311 311 311 311 310 310 310 310 310
308 307 309 311 312 312 312 310 310 310 312 315 315 316 317 314 316 319 321 320 319 319 316 313 314 314 312 312 311 310 310 314 314 315 314 315 315 315 314 315 314 313 312 311 311 311 311 311 311 311 311 311 311 311
308 310 312 314 313 311 311 312 312 312 312 313 313 312 311 316 316 312 318 319 318 319 319 318 316 316 316 315 315 314 315 315 315 315 315 315 315 314 313 313 313 314 313 312 312 311 312 311 310 311 312 311 311 312
309 309 310 311 312 313 312 314 314 314 313 314 314 313 313 313 314 313 317 318 319 319 319 320 321 321 321 319 316 316 316 316 316 316 315 314 314 314 314 314 313 313 313 312 312 311 312 312 311 312 311 311 312 312
Wind_Speed
15 17 14 15 15 18 18 19 20 21 21 22 23 23 23 23 21 20 2 13 5 1 5 3 4 3 3 2 2 3 3 3 3 4 2 2 2 2 2 3 3 3 4 2 3 5 3 6 3 3 5 3 4 3
15 16 14 14 16 18 18 19 19 20 21 22 23 22 21 21 21 17 4 12 11 4 5 11 18 13 6 5 4 2 3 2 4 4 1 2 1 2 2 1 3 3 4 5 2 4 4 5 7 5 4 5 3 4
15 14 15 16 16 17 19 18 19 20 21 22 22 21 19 19 19 18 9 14 6 3 5 4 5 3 4 5 2 3 2 3 1 3 4 2 1 3 1 2 1 5 3 5 4 2 3 6 5 5 5 5 4 4
15 14 15 15 17 18 18 19 21 22 22 22 22 20 18 18 16 15 7 8 3 1 1 5 8 4 3 3 2 3 3 3 4 3 2 2 2 2 3 2 3 3 4 5 4 3 4 4 4 4 3 2 2 3
15 15 16 16 17 18 18 20 22 23 23 22 21 19 17 17 14 12 3 8 11 1 2 5 19 6 5 6 3 2 4 3 2 2 2 2 1 2 2 2 1 0 6 4 4 6 5 4 3 1 2 2 2 2
15 15 16 17 17 18 19 21 23 24 24 22 20 18 15 15 13 1 2 4 9 6 1 3 5 5 3 4 1 2 2 3 2 3 2 2 2 3 3 1 4 3 2 7 5 5 5 6 5 3 4 4 1 3
15 16 16 17 17 18 20 23 24 24 24 22 20 17 14 11 9 1 3 3 8 5 2 4 5 4 3 3 3 1 3 2 2 2 0 2 1 3 3 3 6 4 3 5 7 7 4 3 4 3 1 4 1 4
14 15 16 16 16 18 21 24 23 25 25 21 18 15 10 6 5 2 1 4 6 1 2 1 4 4 2 0 1 1 1 2 3 2 1 2 2 2 1 4 5 4 4 4 6 4 7 5 6 4 2 1 4 5
14 15 15 15 16 18 21 23 23 26 24 16 15 8 2 1 2 3 7 8 3 1 1 1 2 3 2 0 1 2 2 1 2 1 2 3 1 2 6 7 8 7 8 8 7 5 4 4 4 1 3 5 4 7
14 14 14 14 16 18 21 21 24 27 18 13 6 3 2 3 11 11 1 2 2 1 1 3 1 3 2 1 1 2 1 2 1 4 2 2 4 3 5 11 12 9 7 7 5 3 3 1 3 4 6 5 5 7
12 13 14 15 16 18 20 20 22 24 10 7 8 2 9 12 3 2 2 1 1 2 2 4 4 2 1 3 3 2 2 0 1 4 3 1 3 3 5 7 4 5 6 4 5 4 5 4 4 6 7 9 12 15
12 12 13 14 16 18 18 18 19 17 15 11 12 10 6 3 2 1 2 3 2 4 2 3 4 4 4 2 3 1 2 2 3 1 2 1 3 4 6 7 6 5 7 6 8 6 4 6 8 9 10 12 16 21
12 13 14 16 16 15 13 16 17 16 17 2 2 2 1 1 3 2 2 2 3 3 2 2 1 2 5 3 3 2 2 3 1 1 2 2 3 4 5 4 4 3 7 8 4 5 5 4 6 8 12 19 20 20
12 13 15 17 11 8 14 19 18 15 4 2 1 5 2 2 3 3 2 3 4 2 6 1 0 2 3 2 1 2 2 1 1 1 3 2 2 3 3 2 1 2 3 6 4 2 4 5 10 14 15 15 16 18
12 14 16 7 5 11 17 20 17 8 2 2 2 3 4 4 3 4 4 2 2 3 1 3 3 1 2 3 2 2 1 2 4 4 2 4 5 3 2 2 3 2 2 3 3 3 4 7 9 13 14 12 15 16
12 13 2 7 12 17 21 18 5 1 2 2 3 2 3 2 4 2 3 2 3 1 2 1 1 2 2 2 2 4 3 4 3 3 3 3 3 3 3 3 3 5 5 6 6 4 5 6 10 11 9 9 9 9
11 3 6 12 18 23 13 2 1 3 2 3 3 3 3 3 6 8 3 3 4 2 2 2 4 2 1 1 2 3 4 3 3 3 1 4 4 6 5 4 4 4 5 6 4 5 7 9 8 6 5 7 5 6
5 6 9 17 20 16 3 2 2 2 4 4 2 3 2 3 4 5 3 3 4 3 4 4 1 3 3 3 2 3 3 3 3 3 3 4 5 9 8 8 6 5 4 4 4 7 6 4 5 5 7 7 9 8
11 13 12 10 10 6 3 2 2 3 4 3 3 3 3 4 4 5 3 1 0 3 5 2 3 4 4 3 3 3 3 3 2 2 3 6 7 7 6 5 4 3 5 6 5 7 6 6 10 8 8 8 10 10
11 8 5 6 4 1 2 3 3 2 3 3 3 3 3 4 3 1 2 0 2 2 1 4 5 4 4 3 4 3 3 3 3 1 0 1 4 4 5 5 4 5 7 6 4 6 8 10 11 9 10 10 8 11
5 2 5 5 2 4 2 2 3 3 4 3 3 2 4 2 3 2 3 1 1 3 3 4 3 4 5 6 5 5 2 4 4 4 4 3 4 2 3 2 3 4 3 5 6 8 9 9 12 14 10 12 11 13
1 4 3 2 3 3 3 6 3 4 2 3 4 2 3 2 2 2 3 1 3 3 3 2 2 1 2 3 3 4 1 4 4 3 4 4 1 1 0 2 2 3 5 8 10 11 12 10 10 12 11 12 13 14
4 3 3 3 2 1 5 2 2 3 3 3 2 3 2 2 2 1 1 3 3 2 4 3 2 2 3 2 3 3 3 2 1 2 2 2 3 4 6 8 9 9 8 11 8 12 13 11 11 11 8 10 10 12
3 2 2 2 4 3 2 3 3 3 3 2 2 3 2 2 2 0 3 3 2 2 2 3 2 2 2 2 1 3 5 4 4 4 6 5 3 7 8 8 11 11 13 15 17 16 14 16 10 12 9 7 7 7
1 3 3 4 3 3 4 3 4 2 3 3 2 3 2 2 1 2 2 3 1 2 3 4 2 2 3 2 4 11 10 11 8 4 5 8 7 9 7 9 11 10 10 12 13 8 4 2 8 10 6 5 6 7
4 5 6 4 3 4 4 3 4 4 2 2 3 1 2 2 2 4 3 2 3 4 4 5 5 3 3 9 4 5 17 11 12 7 17 13 13 11 7 3 3 11 7 8 4 2 3 2 2 5 7 6 6 10
4 4 5 4 3 3 4 4 3 2 3 3 2 3 2 3 3 4 3 3 3 8 16 18 17 12 9 15 21 24 24 12 12 16 14 15 14 14 18 16 9 10 7 7 4 2 2 3 5 6 8 8 8 11
5 3 5 3 3 3 3 3 3 3 3 2 3 2 1 2 3 3 4 5 10 11 16 18 20 22 24 27 27 26 20 13 8 9 10 11 12 12 14 14 8 7 6 6 4 1 1 4 4 4 4 5 8 13
4 3 0 5 4 4 5 6 4 3 3 4 4 4 4 3 3 3 4 5 3 11 14 12 17 20 21 22 16 16 17 14 14 5 5 4 3 11 18 16 12 11 10 9 7 5 4 5 6 7 9 11 11 12
5 5 4 4 5 6 5 5 3 3 4 4 3 2 3 3 8 13 14 13 10 14 21 20 19 14 11 7 6 9 15 19 24 20 5 5 8 11 17 21 19 17 15 14 13 14 14 15 16 18 18 17 15 14
2 4 3 4 4 4 5 4 4 3 3 4 4 4 7 4 7 13 17 19 19 18 16 18 19 19 15 13 13 9 8 17 20 22 21 21 19 13 13 20 24 22 20 20 20 20 20 21 21 18 16 13 13 10
4 6 4 3 4 4 3 4 4 4 4 3 4 3 2 1 4 4 10 17 20 14 22 22 20 23 25 23 24 22 22 22 12 14 16 17 16 15 14 16 18 22 22 22 21 20 22 22 19 10 4 5 4 4
4 2 3 3 3 4 4 4 3 4 3 3 5 5 5 5 7 5 15 16 24 29 28 29 21 17 19 22 20 17 15 14 13 15 13 10 11 10 8 10 16 15 15 19 18 13 10 7 10 11 7 4 4 7
Wind_Direction
333 338 340 342 346 343 348 351 352 352 351 349 350 352 355 0 3 6 36 25 24 204 280 284 333 10 348 56 120 284 39 345 44 69 128 224 188 272 51 342 110 133 120 126 92 94 198 6 344 154 171 103 131 64
332 336 342 344 343 344 347 350 352 349 347 346 346 347 351 357 358 4 326 352 337 183 249 298 289 281 253 195 152 5 186 187 180 93 162 124 323 21 148 218 354 39 173 142 124 152 272 321 92 79 84 95 56 82
335 337 340 339 341 343 344 348 346 343 342 342 342 343 348 351 355 356 335 353 344 12 306 351 279 238 258 243 213 117 287 202 185 168 153 153 102 125 124 265 101 1 119 107 86 351 63 71 66 84 108 122 148 143
335 336 339 343 343 344 346 346 346 343 341 340 339 342 344 345 349 342 330 0 5 283 347 283 352 285 249 174 119 84 160 84 94 66 99 126 157 155 205 192 119 213 51 119 70 147 93 48 92 117 95 76 20 350
335 336 337 340 340 342 345 345 344 342 341 340 339 340 341 340 341 339 140 74 32 126 258 282 313 298 241 192 165 103 92 93 77 63 80 220 204 105 3 68 7 275 158 138 198 194 146 188 180 146 70 36 51 78
332 334 335 337 339 342 344 343 342 340 339 338 336 334 333 330 337 317 10 232 357 3 80 311 303 295 175 173 92 119 94 99 94 131 207 246 249 107 100 145 265 281 166 154 166 174 165 149 171 171 161 180 293 319
330 334 336 337 339 341 342 341 340 340 340 337 331 325 319 314 319 230 202 321 331 339 79 311 316 291 217 85 23 37 49 90 114 128 214 169 356 81 105 161 219 216 185 116 124 115 103 167 203 198 166 107 56 310
327 330 333 336 338 341 343 342 342 342 340 335 332 326 318 301 304 329 40 338 325 342 94 273 276 339 171 78 306 8 71 28 9 161 63 160 11 55 225 243 172 165 141 129 159 178 178 167 115 124 131 7 330 308
325 328 331 334 337 341 344 344 343 343 339 330 333 328 338 7 347 344 306 304 297 236 200 192 232 240 355 170 167 23 78 78 303 180 243 105 1 224 218 172 178 182 181 184 189 157 88 86 125 341 317 303 299 298
324 327 331 334 336 339 344 343 343 347 341 333 342 358 339 6 310 308 260 31 359 320 59 229 238 265 102 43 303 97 65 163 167 248 105 137 237 249 202 189 182 186 186 149 123 110 115 176 242 279 278 286 267 272
320 325 329 332 335 340 343 342 340 349 352 5 2 320 313 322 314 26 281 168 202 264 209 238 198 232 269 135 198 170 165 104 75 267 145 224 278 280 181 156 100 114 127 127 117 121 139 167 221 258 279 273 280 291
316 321 326 330 332 336 340 344 343 349 339 313 291 301 300 331 21 347 259 291 197 240 226 195 230 195 276 108 107 305 123 54 232 194 102 249 270 312 92 110 129 144 136 134 143 143 188 230 256 264 270 288 311 306
311 317 323 326 329 333 343 344 339 329 327 292 229 284 292 334 25 228 290 298 295 293 334 279 250 134 347 25 59 76 90 235 356 41 235 231 311 17 76 87 82 65 103 116 135 184 215 270 305 292 301 318 321 315
305 313 320 322 326 341 343 344 338 333 313 303 312 318 174 268 249 218 257 251 255 307 321 263 144 173 212 95 131 109 232 70 7 267 231 191 237 296 331 329 53 25 174 173 188 266 284 316 319 326 332 334 339 333
303 313 320 332 329 329 332 330 328 315 295 289 22 251 236 249 270 270 272 316 339 305 311 12 35 4 359 94 32 84 147 240 202 227 223 210 205 204 253 271 266 275 267 241 260 272 288 330 324 322 349 353 5 355
309 319 322 326 324 324 326 319 310 264 253 250 236 269 274 345 300 266 317 282 216 135 98 64 306 32 336 122 139 220 164 218 229 209 215 175 198 219 241 235 235 279 228 227 259 265 314 316 321 324 343 9 13 12
309 260 314 320 318 324 324 294 270 230 262 244 251 223 227 255 255 275 210 243 138 122 98 9 352 250 118 76 265 188 206 224 209 232 221 193 222 238 234 266 257 218 225 248 273 315 303 312 321 341 337 337 333 335
273 286 296 317 326 335 318 252 253 266 251 241 243 254 217 227 260 281 252 189 156 145 128 171 93 286 238 202 235 239 243 256 229 219 223 220 225 247 227 221 248 236 269 299 301 296 300 306 315 303 310 312 299 319
290 297 303 313 323 322 322 263 210 265 254 265 260 246 229 246 239 258 287 24 115 113 109 124 176 215 236 223 227 260 247 200 209 238 245 249 231 196 185 201 222 230 263 265 258 258 267 282 277 288 292 288 283 318
297 305 317 311 289 268 277 271 240 238 273 264 272 271 229 236 263 250 146 131 93 113 115 202 219 213 189 228 203 211 218 183 131 86 358 283 222 210 216 221 228 227 267 308 303 250 268 289 293 288 273 266 281 292
305 328 323 293 259 222 279 294 283 229 275 270 265 271 263 296 252 216 197 161 94 213 236 225 223 237 224 256 224 196 185 151 176 178 194 221 247 282 307 253 248 251 279 312 311 298 290 276 299 300 303 262 272 285
267 309 297 276 264 224 244 232 225 274 279 259 307 217 283 297 278 251 147 124 229 233 198 209 260 242 188 189 186 198 136 113 134 160 153 156 91 65 8 294 256 274 269 266 264 262 280 297 317 314 311 302 279 271
293 291 257 252 281 271 267 234 256 246 253 264 306 288 287 298 278 14 288 218 247 216 183 193 199 204 207 174 199 181 154 107 164 213 235 216 226 231 256 274 274 248 271 282 286 279 283 302 313 331 337 313 309 272
269 261 253 234 194 257 302 250 229 256 272 272 273 289 318 281 330 7 258 247 241 146 145 194 128 73 25 54 302 269 239 224 188 251 238 222 254 268 243 266 313 277 265 285 296 284 281 276 285 307 311 324 340 298
241 235 186 251 263 246 245 241 217 216 246 228 262 283 301 340 330 275 247 277 188 202 187 176 198 191 189 262 279 266 272 237 212 238 259 224 254 285 286 297 317 302 293 282 273 307 354 317 275 283 274 268 301 329
238 207 192 229 223 211 228 259 218 220 211 224 240 269 10 351 307 257 244 221 207 194 186 184 189 188 245 226 248 272 273 252 226 229 266 260 257 251 263 263 295 291 265 238 211 175 6 310 231 205 198 267 300 317
245 245 217 229 238 273 266 265 253 218 247 220 203 154 187 238 251 257 270 219 190 214 207 209 208 201 224 247 255 264 269 256 226 243 269 269 279 270 256 262 241 244 218 197 218 228 196 134 181 217 258 289 296 306
235 256 206 230 225 229 257 286 275 242 229 176 122 185 240 255 253 234 222 252 240 228 225 226 231 236 246 248 265 264 262 254 258 240 257 260 264 262 252 248 211 184 208 227 227 288 353 168 187 237 261 293 317 327
238 254 182 251 236 242 219 206 228 255 174 148 170 217 235 224 236 226 252 241 218 205 212 229 242 245 251 259 261 251 249 212 175 218 220 232 289 232 210 209 195 201 204 211 225 254 274 278 286 293 298 307 321 324
244 187 214 232 208 220 228 195 222 241 203 203 218 294 290 266 252 251 244 237 221 213 216 216 226 217 231 249 257 239 239 220 212 212 210 223 240 263 217 220 224 226 230 237 248 258 263 269 277 283 285 289 294 296
246 163 212 233 256 237 236 257 265 242 228 230 208 206 251 271 287 271 247 239 232 233 226 216 230 241 242 243 233 229 257 244 228 236 241 254 282 260 238 227 232 238 241 246 255 265 278 290 293 294 293 300 303 321
199 206 202 241 264 253 219 229 234 226 247 222 253 211 294 324 258 269 252 225 216 217 229 222 215 236 244 249 254 260 256 263 249 234 235 240 234 230 232 228 229 236 243 249 254 269 276 276 269 264 243 265 294 301
190 211 217 257 274 263 250 166 258 262 249 235 242 218 213 194 238 256 272 245 230 218 215 220 228 242 248 251 261 246 233 246 244 216 210 219 200 201 225 236 228 242 246 254 253 242 250 240 193 184 199 229 272 301